Regional Weather Roundup
Issued by NWS

Home | Current Version | Previous Version | Text Only | Print | Product List | Glossary Off
Versions: 1 2 3 4 5 6 7 8 9 10 11 12 13 14 15 16 17 18 19 20 21 22 23 24 25 26 27

000
ASUS43 KDMX 180907
RWRIA

WEATHER ROUNDUP FOR IOWA
NATIONAL WEATHER SERVICE DES MOINES IA
400 AM CDT FRI APR 18 2014

NOTE: "FAIR" INDICATES FEW OR NO CLOUDS BELOW 12,000 FEET WITH NO
SIGNIFICANT WEATHER AND/OR OBSTRUCTIONS TO VISIBILITY.

* - THESE STATIONS ARE NOT NWS STATIONS...THUS NOT UNDER NWS
QUALITY CONTROL.  THEY ALSO DO NOT REPORT WEATHER SUCH
AS PRECIPITATION OR FOG.

IAZ001>003-012>014-020>022-031>034-043>046-181000-
   NORTHWEST IOWA

CITY           SKY/WX    TMP DP  RH WIND       PRES   REMARKS
CARROLL *      PTCLDY    28  27  93 CALM      30.28S
CHEROKEE *     CLEAR     30  27  86 CALM      30.27S
DENISON *      CLOUDY    34  30  86 E7        30.26R WCI  28
LE MARS *      CLEAR     34  30  86 SE12G20   30.25S WCI  25
ORANGE CITY *  CLEAR     34  27  75 E6        30.25S WCI  29
SHELDON *      MOCLDY    30  28  93 SE7       30.26R WCI  23
SIOUX CITY     CLEAR     30  25  81 SE8       30.25S WCI  22
SPENCER        PTCLDY    30  27  88 E8        30.28S WCI  22
STORM LAKE *   CLEAR     28  28 100 SE9       30.27S WCI  20
$$

IAZ055>058-069>071-079>083-090>094-181000-
   SOUTHWEST IOWA

CITY           SKY/WX    TMP DP  RH WIND       PRES   REMARKS
ATLANTIC *     MOCLDY    32  28  86 N5        30.27S WCI  27
AUDUBON *      CLEAR     30  25  80 CALM      30.28S
CLARINDA *       N/A     28  28 100 CALM      30.29S
COUNCIL BLFS * PTCLDY    36  27  69 CALM      30.24S
CRESTON *      CLEAR     32  30  93 E5        30.28R WCI  27
HARLAN  *      CLEAR     34  28  80 CALM      30.30S
LAMONI         CLEAR     39  31  72 W5        30.27S
RED OAK *      CLEAR     32  28  86 CALM      30.27S
SHENANDOAH *   CLOUDY    30  28  93 CALM      30.28R
$$

IAZ047>049-059>061-072>074-084-181000-
   CENTRAL IOWA

CITY           SKY/WX    TMP DP  RH WIND       PRES   REMARKS
AMES           CLEAR     31  27  85 NE3       30.30S
ANKENY *       CLEAR     32  28  86 CALM      30.30R
CHARITON *     CLEAR     34  30  86 E6        30.29S WCI  29
DES MOINES     PTCLDY    36  29  75 E3        30.30S
GRINNELL*      CLEAR     30  28  93 NE5       30.30S WCI  25
KNOXVILLE *    CLEAR     34  30  86 CALM      30.30S
MARSHALLTOWN   CLEAR     30  28  92 CALM      30.30R
NEWTON *       CLEAR     32  30  93 NE7       30.31R WCI  26
PELLA *        CLEAR     34  30  86 CALM      30.31S
PERRY *          N/A     32  28  86 E5        30.29R WCI  27
$$

IAZ004>006-015-016-023>025-035-036-181000-
   NORTH CENTRAL IOWA

CITY           SKY/WX    TMP DP  RH WIND       PRES   REMARKS
ALGONA *       CLOUDY    32  30  93 SE5       30.30S WCI  27
CLARION *      CLEAR     28  28 100 E6        30.30S FOG     WCI  22
ESTHERVILLE    MOCLDY    29  29 100 SE6       30.28S FOG     WCI  23
FORT DODGE *   CLEAR     28  25  86 E3        30.30S
MASON CITY     FOG       24  22  91 NE3       30.32S VSB 1
FOREST CITY *    N/A     27  27 100 CALM      30.30S FOG
IOWA FALLS *     N/A     30  27  86 CALM      30.31S FOG
$$

IAZ007>011-017>019-026>030-037>042-050>054-066-181000-
   NORTHEAST IOWA

CITY           SKY/WX    TMP DP  RH WIND       PRES   REMARKS
CEDAR RAPIDS   CLEAR     29  32 100 N5        30.29S HAZE    WCI  24
CHARLES CITY * CLEAR     30  27  86 NE7       30.31S WCI  23
CLINTON *      CLEAR     30  28  93 N9        30.31F WCI  22
DECORAH *      CLEAR     28  28 100 NW3       30.31R FOG
DUBUQUE        CLEAR     31  28  89 N9        30.29S WCI  23
MONTICELLO *   CLEAR     30  28  93 N6        30.30S WCI  24
OELWEIN *      CLEAR    N/A N/A N/A NE5       30.31R
WATERLOO       CLEAR     26  24  92 CALM      30.31S FOG
$$

IAZ064-065-067-068-078-181000-
   EAST CENTRAL IOWA

CITY           SKY/WX    TMP DP  RH WIND       PRES   REMARKS
DAVENPORT      CLEAR     30  28  92 N6        30.31R FOG     WCI  24
IOWA CITY      CLEAR     34  29  82 NE3       30.32R
MT. PLEASANT * CLEAR     34  30  86 N7        30.30S WCI  28
MUSCATINE *    CLEAR     34  30  86 N3        30.31S
QUAD CITIES    CLEAR     37  31  78 CALM      30.30R
$$

IAZ062-063-075>077-085>089-095>099-181000-
   SOUTHEAST IOWA

CITY           SKY/WX    TMP DP  RH WIND       PRES   REMARKS
BURLINGTON     CLEAR     36  31  82 N7        30.28S WCI  30
FAIRFIELD *    CLEAR     30  28  93 NE7       30.30S WCI  23
FORT MADISON * CLEAR     36  34  93 N3        30.30S
KEOKUK *       CLEAR     39  34  81 N6        30.28S WCI  35
OSKALOOSA *      N/A     30  28  93 NE6       30.30S WCI  24
CENTERVILLE *  CLEAR     36  32  87 N3        30.31R
OTTUMWA        CLEAR     33  29  85 NE7       30.30R WCI  27
WASHINGTON *   CLEAR     32  30  93 N5        30.31R WCI  27
$$

ABBREVIATIONS USED IN REMARKS
   TC - TEMPERATURES IN CELSIUS
  WCI - WIND CHILL INDEX
   HX - HEAT INDEX
  VSB - VISIBILITY
$$




USA.gov is the U.S. government's official web portal to all federal, state and local government web resources and services.